Regional Weather Roundup
Issued by NWS Albany, NY

Home | Current Version | Previous Version | Graphics & Text | Print | Product List | Glossary Off
Versions: 1 2 3 4 5 6 7 8 9 10 11 12 13 14 15 16 17 18 19 20 21 22 23 24 25 26 27 28 29 30 31 32 33 34 35 36 37 38 39 40 41 42 43 44 45 46 47 48 49 50

000
ASUS41 KALY 230610
RWRALY

NEW YORK STATE HOURLY WEATHER ROUNDUP
NATIONAL WEATHER SERVICE ALBANY NY
200 AM EDT TUE MAY 23 2017

NOTE: "FAIR" INDICATES FEW OR NO CLOUDS BELOW 12,000 FEET WITH NO
SIGNIFICANT WEATHER AND/OR NO OBSTRUCTIONS TO VISIBILITY.

NYZ032-033-038>043-046>054-057>066-NYZ062>081-082-084-230700-
EAST


CITY           SKY/WX    TMP DP  RH WIND       PRES   REMARKS
ALBANY         CLOUDY    56  47  71 NW7       29.99R
GLENS FALLS    NOT AVBL
POUGHKEEPSIE   CLOUDY    56  56 100 CALM      29.96S FOG
NEWBURGH       CLOUDY    57  57 100 CALM      29.97F
MONTGOMERY     CLOUDY    58  56  93 CALM      29.95F FOG
WHITE PLAINS   MOCLDY    58  56  93 NW9       29.94F
ISLIP          CLOUDY    58  58 100 N9        29.93S FOG
NEW YORK CITY  CLOUDY    60  57  89 NW14      29.94F
CENTRAL PARK   CLOUDY    59  57  93 VRB3      29.97F
$$

NYZ005>009-017-018-044>046-055-056-230700-
CENTRAL


CITY           SKY/WX    TMP DP  RH WIND       PRES   REMARKS
FULTON         CLEAR     43  41  93 CALM      29.97F
SYRACUSE       PTCLDY    48  44  86 S3        29.97F
ROME           CLOUDY    43  43 100 CALM      29.99F
ELMIRA         CLEAR     45  42  89 CALM      30.00F
BINGHAMTON     CLEAR     47  41  80 CALM      29.99F
MONTICELLO     CLOUDY    54  54 100 N10G20    29.99F
$$

NYZ026>034-041>043-087-230700-
NORTH


CITY           SKY/WX    TMP DP  RH WIND       PRES   REMARKS
WATERTOWN      CLEAR     48  45  89 SW5       29.96F
FORT DRUM      NOT AVBL
OGDENSBURG     FAIR      52  47  84 SW8       29.94S
MASSENA        CLOUDY    52  48  86 SW7       29.93F
SARANAC LAKE   CLOUDY    47  46  97 SW7       29.94F
PLATTSBURGH    CLOUDY    51  47  86 CALM      29.94S
$$

NYZ001>004-010>016-019>021-085-230700-
WEST


CITY           SKY/WX    TMP DP  RH WIND       PRES   REMARKS
NIAGARA FALLS  CLEAR     51  44  77 S6        29.95F
BUFFALO        PTCLDY    49  42  77 S6        29.96F
DUNKIRK        PTCLDY    55  44  66 S10       29.97F
JAMESTOWN      CLEAR     46  39  76 S5        30.00S
WELLSVILLE     CLEAR     48  41  76 CALM      30.01F
ROCHESTER      CLEAR     50  43  77 SW6       29.96F
PENN YAN       CLEAR     50  41  71 SW7       29.99F
$$

             KEY
       WCI = WIND CHILL INDEX
       VSB = VISIBILITY
       HX  = HEAT INDEX
$$



USA.gov is the U.S. government's official web portal to all federal, state and local government web resources and services.